Location: Unspecified
(48.2082°N, 0.0000°E)
Time: 15:14:48
(UTC+00:00)

S-56A Canister/Altair - Pass Details

Date: 23 August 2020
Orbit: 633 x 2499 km, 38.9° (Epoch: 23 September)

Event Time Altitude Azimuth Distance (km) Brightness Sun altitude
Exits shadow 03:27:58 20° 202° (SSW) 1,601 8.7 -15.2°
Maximum altitude 03:30:03 27° 164° (SSE) 1,431 8.7 -14.9°
Drops below altitude 10° 03:34:57 10° 108° (ESE) 2,626 10.8 -14.3°
Sets 03:38:22 0° 97° (E) 3,860 11.9 -13.8°
